Starlink 33741

operational
NORAD ID: 63365 Int'l Des: 2025-063 Owner: SPXS Country: US Constellation: starlink
LEOCIRCULAR

Über Starlink 33741

Beschreibung wird geladen...

Live-Position

3D-Globus wird geladen...

Nächste Überflüge

Höhenverlauf

Altitude vs Time

uPlot chart will show altitude changes over time

Zweizeiliger Elementsatz

1 63365U 25063C 25304.67457295 .00032505 00000-0 11047-2 0 9998
2 63365 53.1592 291.9439 0001601 86.1683 273.9501 15.30203267 35001
Epoch: 31. Okt. 2025 • Age: 26 hours

Aktueller Status

Höhe 492.8 km
Geschwindigkeit 7.62 km/s
Subsatellitenpunkt -48.93°S, 91.19°W
Startdatum 26. März 2025
Alter 0.5 years
Typ internet

Technische Details

Klassifizierung Payload
Masse 575.00 kg
Trockenmasse 530.00 kg
Gesamtmasse 575.00 kg
Länge 0.30 m
Durchmesser 4.10 m
Spannweite 29.00 m
Form Box + pan
Hersteller SPXS
Bus-Typ Starlink V2MO
Phasenstatus In Orbit
Besitzer/Staat SPXS/US

Große Konstellationen

Loading constellations...